Regional Weather Roundup
Issued by NWS Glasgow, MT

Home | Current Version | Previous Version | Text Only | Print | Product List | Glossary On
Versions: 1 2 3 4 5 6 7 8 9 10 11 12 13 14 15 16 17 18 19 20 21 22 23 24 25 26 27 28 29 30 31 32 33 34 35 36 37 38 39 40 41 42 43 44 45 46 47 48 49 50
000
ASUS45 KGGW 302315
RWRGGW
HOURLY WEATHER ROUNDUP FOR NORTHEAST MONTANA
NATIONAL WEATHER SERVICE GLASGOW MONTANA
500 PM MDT WED JUL 30 2014

NOTE: "FAIR" INDICATES FEW OR NO CLOUDS BELOW 12,000 FEET WITH NO
SIGNIFICANT WEATHER AND/OR OBSTRUCTIONS TO VISISBILITY.

NORTHEAST MONTANA


CITY           SKY/WX    TMP DP  RH WIND       PRES   REMARKS
GLASGOW        SUNNY     92  43  18 SE9       30.07F
PLENTYWOOD       N/A     84  51  31 E5          N/A
WOLF POINT     SUNNY     90  48  23 CALM      30.09F
JORDAN           N/A     92  38  15 SE8       30.09F
WINNETT          N/A     94  33  11 SE5         N/A
SIDNEY         SUNNY     84  52  32 E6        30.13F
GLENDIVE       MOSUNNY   84  50  30 CALM      30.14S
MALTA            N/A     98  52  21 S3          N/A
SCOBEY           N/A     86  51  29 SE5       30.10F

FORT PECK REPORTS


CITY           SKY/WX    TMP DP  RH WIND       PRES   REMARKS
FORT PECK        N/A     92  47  21 S3          N/A
THE PINES        N/A     93  43  17 NE5         N/A

SOUTHEAST MONTANA


CITY           SKY/WX    TMP DP  RH WIND       PRES   REMARKS
BILLINGS       MOSUNNY   89  39  17 SE15      30.15F
MILES CITY     SUNNY     89  41  18 E9G16     30.13F
BAKER          SUNNY     87  48  25 VRB7      30.17F
LIVINGSTON     MOSUNNY   90  32  12 NE14      30.16F

CENTRAL MONTANA


CITY           SKY/WX    TMP DP  RH WIND       PRES   REMARKS
HAVRE          SUNNY     97  31   9 SE9       30.02F
LEWISTOWN      SUNNY     89  36  15 VRB6      30.15F
GREAT FALLS    PTSUNNY   89  36  15 VRB3      30.08F
CUT BANK       CLOUDY    87  40  19 SW15      30.12S
HELENA         CLOUDY    86  42  21 W8        30.12R
BUTTE          CLOUDY    76  46  34 S9        30.27F
BOZEMAN        PTSUNNY   83  42  23 NW12      30.15F

WESTERN MONTANA


CITY           SKY/WX    TMP DP  RH WIND       PRES   REMARKS
MISSOULA       CLOUDY    92  38  15 W6        30.07F
KALISPELL      NOT AVBL

NORTH DAKOTA


CITY           SKY/WX    TMP DP  RH WIND       PRES   REMARKS
WILLISTON      SUNNY     84  45  25 N6        30.12F
DICKINSON      SUNNY     83  50  31 N8        30.13F
MINOT          MOSUNNY   79  58  48 N9        30.11F
BISMARCK       CLOUDY    81  55  40 E6        30.10F

SOUTHERN SASKATCHEWAN


CITY           SKY/WX    TMP DP  RH WIND       PRES   REMARKS
REGINA         PTSUNNY   81  55  41 SE9       30.11F
MOOSE JAW      MOSUNNY   82  61  47 SE12      30.09F
ESTEVAN        PTSUNNY   77  55  47 NE3       30.15S
SWIFT CURRENT  SUNNY     90  46  22 SW12      30.03F




USA.gov is the U.S. government's official web portal to all federal, state and local government web resources and services.